Location: Mountain Grove
(34.0887°N, 86.6172°W)
Time: 23:32:38
(UTC+00:00)

Cosmos 2322 - Pass Details

Date: 14 July 2020
Orbit: 841 x 854 km, 71.0° (Epoch: 12 August)

Event Time Altitude Azimuth Distance (km) Brightness Sun altitude
Rises 01:15:38 0° 205° (SSW) 3,406 6.8 -3.8°
Reaches altitude 10° 01:18:05 10° 208° (SSW) 2,474 6.1 -4.3°
Maximum altitude 01:23:45 71° 291° (WNW) 903 4.2 -5.3°
Drops below altitude 10° 01:29:27 10° 16° (NNE) 2,487 6.4 -6.3°
Sets 01:31:56 0° 19° (NNE) 3,425 7.0 -6.7°
